[[{"header":{"parameterUnit":"m.s-1","parameterCategory":2,"la1":30.2992,"la2":30.254,"lo1":-89.0895,"lo2":-89.0443,"dy":0.0025,"dx":0.0025,"nx":19,"ny":19,"refTime":"2026-04-21T21:00:00:Z","depth":"0","parameterNumber":2,"parameterNumberName":"U-component_of_CURRENTS"},"data":[0,0,0,0.3018,0.3021,0.3148,0.3148,0.3213,0.3213,0,0,0,0,0,0,0,0,0,0,0,0.2969,0.297,0.3017,0.3021,0.3148,0.3148,0.3212,0.3213,0,0,0,0,0,0,0,0,0,0,0,0.2968,0.297,0.2971,0.3022,0.3148,0.3148,0.3212,0.3138,0,0,0,0,0,0,0,0,0,0,0.3026,0.2991,0.2969,0.2971,0.3023,0.3148,0.3148,0.3135,0.3143,0.3131,0,0.3162,0,0.3195,0.3216,0.3216,0,0,0,0.3009,0.2985,0.3031,0.2971,0.3024,0.3147,0.3087,0.314,0.3148,0.314,0.3164,0.3167,0.3196,0.3216,0.3217,0.3268,0.3268,0,0,0.3002,0.2976,0.3026,0.3037,0.307,0.3083,0.3091,0.3146,0.315,0.3164,0.3169,0.3198,0.3217,0.3217,0.3268,0.3268,0,0,0,0.299,0.2971,0.3018,0.3033,0.3068,0.3087,0.3096,0.3148,0.3168,0.317,0.3198,0.3217,0.3218,0.3267,0.3268,0.3283,0,0,0,0.2985,0.2966,0.3015,0.2998,0.3068,0.3121,0.3096,0.3164,0.3171,0.3198,0.3217,0.3218,0.3267,0.3268,0.3282,0.334,0,0,0,0.2961,0.2963,0.2985,0.2997,0.306,0.3122,0.3144,0.3166,0.3188,0.3216,0.3218,0.3267,0.3267,0.3281,0.3337,0.3427,0,0,0,0.2919,0.2944,0.2984,0.3018,0.3059,0.3125,0.3145,0.3193,0.3218,0.3217,0.3267,0.3268,0.3281,0.3336,0.3424,0.3406,0.3418,0,0,0.2922,0.2944,0.2964,0.3003,0.3057,0.3105,0.3157,0.3203,0.3218,0.3239,0.3242,0.3282,0.3337,0.3427,0.3434,0.3445,0,0,0,0.2946,0.2956,0.2977,0.3026,0.3087,0.3152,0.3197,0.3224,0.3269,0.3241,0.3288,0.3324,0.3379,0.3361,0.337,0.3303,0.327,0.327,0.327,0.2877,0.2933,0.2965,0.3036,0.3086,0.3183,0.3242,0.329,0.3274,0.3302,0.3337,0.3424,0.3401,0.3409,0.3337,0.3312,0.3312,0.3312,0.3312,0.2865,0.2894,0.2961,0.3012,0.3102,0.3156,0.3283,0.3315,0.3422,0.3371,0.3422,0.3379,0.342,0.334,0.3313,0.3313,0.3312,0.3312,0.3312,0.2813,0.2845,0.288,0.2967,0.3049,0.3153,0.3281,0.338,0.3464,0.3527,0.3539,0.3537,0.3473,0.3549,0.3549,0.355,0.355,0.3551,0.3551,0.2764,0.2808,0.2846,0.2922,0.297,0.3084,0.3297,0.3412,0.3567,0.3606,0.3605,0.3494,0.3499,0.3496,0.3561,0.3559,0.3558,0.3557,0.3556,0.2787,0.2773,0.2813,0.2852,0.2945,0.2978,0.3217,0.3445,0.3608,0.3674,0.361,0.3654,0.3671,0.3662,0.3664,0.377,0.377,0.377,0.377,0.2792,0.279,0.2812,0.2827,0.2872,0.2936,0.3055,0.3294,0.3539,0.3611,0.3659,0.3548,0.3543,0.3547,0.354,0.3537,0.3608,0.3608,0.3608,0.2859,0.2828,0.2829,0.2783,0.281,0.285,0.2877,0.3005,0.3366,0.3595,0.3575,0.3582,0.3407,0.3404,0.3396,0.3391,0.3381,0,0]},{"header":{"parameterUnit":"m.s-1","parameterCategory":2,"la1":30.2992,"la2":30.254,"lo1":-89.0895,"lo2":-89.0443,"dy":0.0025,"dx":0.0025,"nx":19,"ny":19,"refTime":"2026-04-21T21:00:00:Z","depth":"0","parameterNumber":3,"parameterNumberName":"V-component_of_CURRENTS"},"data":[0,0,0,0.0126,0.0125,0.0055,0.0054,-0.0083,-0.0084,0,0,0,0,0,0,0,0,0,0,0,0.015,0.015,0.0126,0.0125,0.0055,0.0054,-0.0083,-0.0084,0,0,0,0,0,0,0,0,0,0,0,0.015,0.015,0.015,0.0125,0.0055,0.0054,-0.0082,-0.0022,0,0,0,0,0,0,0,0,0,0,0.005,0.0087,0.015,0.015,0.0125,0.0055,0.0054,-0.0019,-0.0026,-0.0058,0,-0.0055,0,-0.0065,-0.0092,-0.0093,0,0,0,0.0105,0.0093,0.0077,0.015,0.0124,0.0055,0.0081,-0.0023,-0.0031,-0.0067,-0.0057,-0.0062,-0.0067,-0.0093,-0.0094,-0.0146,-0.0146,0,0,0.0109,0.0127,0.0083,0.0073,0.0123,0.0083,0.0079,-0.0027,-0.0031,-0.0057,-0.0065,-0.0069,-0.0094,-0.0095,-0.0146,-0.0146,0,0,0,0.0134,0.013,0.0117,0.0078,0.0073,0.0082,0.0077,-0.0027,-0.003,-0.0066,-0.0071,-0.0095,-0.0096,-0.0147,-0.0146,0.0004,0,0,0,0.0135,0.0146,0.0119,0.0128,0.0076,0.0029,0.0079,-0.0023,-0.0034,-0.007,-0.0095,-0.0097,-0.0147,-0.0147,-0.0001,0.0117,0,0,0,0.015,0.0147,0.0145,0.0129,0.0108,0.0031,0.0021,-0.0025,-0.0037,-0.0093,-0.0098,-0.0148,-0.0147,-0.0005,0.0107,0.0234,0,0,0,0.0161,0.0184,0.0146,0.0168,0.0109,0.0099,0.0022,-0.0006,-0.0045,-0.0095,-0.0147,-0.0146,-0.0007,0.0101,0.0227,0.0381,0.0426,0,0,0.0202,0.019,0.0204,0.0168,0.0197,0.0106,0.0128,0.0041,-0.0046,-0.0121,-0.0122,0.0,0.0106,0.0232,0.043,0.0475,0,0,0,0.0224,0.0242,0.0241,0.0245,0.0215,0.022,0.0122,0.0085,0.0025,-0.0062,-0.0024,0.0038,0.0113,0.019,0.0224,0.0037,-0.0142,-0.0142,-0.0143,0.03,0.0292,0.034,0.0336,0.0328,0.0284,0.0286,0.0214,0.0098,0.0097,0.014,0.0317,0.0396,0.0425,0.0227,0.0087,0.0088,0.0088,0.0089,0.0405,0.0462,0.0439,0.0493,0.0483,0.0495,0.0444,0.0389,0.0402,0.0258,0.0322,0.0319,0.0472,0.0247,0.0098,0.0096,0.0095,0.0094,0.0094,0.0508,0.0544,0.0561,0.0644,0.0701,0.0671,0.0799,0.0704,0.058,0.0632,0.0702,0.07,0.0525,0.0654,0.0655,0.0656,0.0657,0.0658,0.0659,0.0632,0.0649,0.0764,0.0823,0.0905,0.1006,0.1027,0.107,0.1038,0.0923,0.0923,0.0572,0.049,0.0494,0.0675,0.0672,0.067,0.0669,0.0668,0.0817,0.0819,0.098,0.1081,0.1266,0.1442,0.145,0.1545,0.1533,0.1545,0.1021,0.1069,0.1053,0.1023,0.1039,0.1351,0.1351,0.1351,0.1351,0.0952,0.096,0.1178,0.1355,0.1566,0.165,0.1941,0.1951,0.1618,0.1388,0.1191,0.1036,0.1017,0.0985,0.0956,0.0963,0.1248,0.1248,0.1247,0.1098,0.1125,0.1307,0.144,0.1682,0.1881,0.2132,0.219,0.1636,0.1211,0.0902,0.0907,0.0633,0.0618,0.0519,0.0494,0.0486,0,0]}],[{"header":{"parameterUnit":"m.s-1","parameterCategory":2,"la1":30.2992,"la2":30.254,"lo1":-89.0895,"lo2":-89.0443,"dy":0.0025,"dx":0.0025,"nx":19,"ny":19,"refTime":"2026-04-21T21:00:00:Z","depth":"2","parameterNumber":2,"parameterNumberName":"U-component_of_CURRENTS"},"data":[0,0,0,0.2923,0.2929,0.3161,0.3161,0.3257,0.3257,0,0,0,0,0,0,0,0,0,0,0,0.2843,0.2845,0.2923,0.293,0.3161,0.3161,0.3256,0.3257,0,0,0,0,0,0,0,0,0,0,0,0.2841,0.2844,0.2847,0.2931,0.3161,0.3162,0.3256,0.3127,0,0,0,0,0,0,0,0,0,0,0.2925,0.2887,0.2844,0.2847,0.2932,0.316,0.3162,0.3122,0.3135,0.3101,0,0.3164,0,0.3219,0.3261,0.3261,0,0,0,0.2909,0.2877,0.2944,0.2847,0.2934,0.316,0.3051,0.3131,0.3144,0.3116,0.3166,0.3171,0.3221,0.3261,0.3261,0.332,0.3321,0,0,0.2897,0.287,0.2936,0.2954,0.3027,0.3043,0.3058,0.3141,0.316,0.3167,0.3175,0.3222,0.3261,0.3262,0.332,0.3321,0,0,0,0.2873,0.2861,0.293,0.2948,0.3011,0.3051,0.3068,0.3157,0.3183,0.3176,0.3223,0.3262,0.3262,0.332,0.332,0.3328,0,0,0,0.2865,0.285,0.2925,0.2909,0.3011,0.3115,0.3081,0.3177,0.319,0.3223,0.3262,0.3263,0.332,0.332,0.3327,0.3374,0,0,0,0.2826,0.2845,0.2883,0.2907,0.3018,0.3116,0.3148,0.3182,0.3217,0.3261,0.3263,0.332,0.332,0.3326,0.3371,0.3416,0,0,0,0.2772,0.2851,0.2884,0.2973,0.3017,0.3125,0.3148,0.3226,0.3265,0.3262,0.332,0.332,0.3326,0.337,0.3414,0.3294,0.3294,0,0,0.2833,0.2857,0.2904,0.294,0.3032,0.3089,0.3173,0.3236,0.3256,0.3274,0.3277,0.3327,0.3371,0.3416,0.3327,0.3326,0,0,0,0.2897,0.292,0.2954,0.3024,0.3105,0.3169,0.3236,0.3265,0.3315,0.3291,0.3337,0.3366,0.3393,0.3316,0.3315,0.3323,0.3323,0.3323,0.3323,0.288,0.293,0.2988,0.3051,0.312,0.3221,0.3283,0.3331,0.3323,0.3349,0.3376,0.3429,0.3344,0.3343,0.3359,0.3359,0.3359,0.336,0.336,0.2898,0.2921,0.2983,0.3051,0.3127,0.3193,0.3317,0.3349,0.3438,0.3405,0.3429,0.3334,0.3342,0.336,0.336,0.336,0.336,0.336,0.336,0.2836,0.2863,0.2906,0.2987,0.3073,0.3179,0.3291,0.3385,0.3463,0.351,0.3427,0.3425,0.3458,0.3506,0.3506,0.3506,0.3507,0.3507,0.3507,0.2763,0.2814,0.2831,0.2914,0.2964,0.3072,0.3277,0.3366,0.3445,0.3467,0.3465,0.348,0.3475,0.3468,0.3513,0.3512,0.3511,0.3511,0.351,0.277,0.2738,0.2766,0.2797,0.2886,0.2896,0.3124,0.3265,0.3384,0.3393,0.3441,0.344,0.3441,0.3439,0.3432,0.3466,0.3466,0.3466,0.3466,0.2752,0.2737,0.2745,0.2756,0.2778,0.2835,0.2818,0.2891,0.3093,0.3138,0.3152,0.3044,0.3054,0.3028,0.3035,0.3018,0.2945,0.2943,0.2942,0.2805,0.2774,0.2775,0.2723,0.2731,0.2715,0.2567,0.2421,0.2602,0.2918,0.3018,0.3439,0.3315,0.3317,0.3304,0.3305,0.3289,0,0]},{"header":{"parameterUnit":"m.s-1","parameterCategory":2,"la1":30.2992,"la2":30.254,"lo1":-89.0895,"lo2":-89.0443,"dy":0.0025,"dx":0.0025,"nx":19,"ny":19,"refTime":"2026-04-21T21:00:00:Z","depth":"2","parameterNumber":3,"parameterNumberName":"V-component_of_CURRENTS"},"data":[0,0,0,0.007,0.0069,-0.0012,-0.0013,-0.0149,-0.0151,0,0,0,0,0,0,0,0,0,0,0,0.0097,0.0097,0.007,0.0069,-0.0012,-0.0013,-0.0149,-0.0151,0,0,0,0,0,0,0,0,0,0,0,0.0098,0.0097,0.0097,0.0068,-0.0012,-0.0013,-0.0149,-0.0084,0,0,0,0,0,0,0,0,0,0,-0.0003,0.0034,0.0097,0.0097,0.0068,-0.0012,-0.0013,-0.0081,-0.0088,-0.0117,0,-0.0118,0,-0.0131,-0.0159,-0.0159,0,0,0,0.0051,0.004,0.0021,0.0097,0.0068,-0.0012,0.0019,-0.0085,-0.0093,-0.0127,-0.012,-0.0125,-0.0133,-0.016,-0.016,-0.0207,-0.0206,0,0,0.0056,0.0074,0.0028,0.0017,0.006,0.0022,0.0017,-0.0089,-0.0095,-0.0121,-0.0128,-0.0135,-0.0161,-0.0161,-0.0207,-0.0206,0,0,0,0.008,0.0077,0.0061,0.0022,0.0014,0.002,0.0014,-0.0091,-0.0094,-0.013,-0.0137,-0.0161,-0.0163,-0.0207,-0.0207,-0.0051,0,0,0,0.0082,0.0093,0.0064,0.0072,0.0017,-0.0034,0.0016,-0.0087,-0.0099,-0.0136,-0.0161,-0.0164,-0.0208,-0.0207,-0.0057,0.0055,0,0,0,0.0099,0.0094,0.009,0.0074,0.0047,-0.0033,-0.0044,-0.009,-0.0103,-0.0159,-0.0164,-0.0208,-0.0207,-0.0061,0.0044,0.0127,0,0,0,0.0112,0.0132,0.0091,0.011,0.0048,0.0038,-0.0043,-0.0071,-0.011,-0.0162,-0.0208,-0.0207,-0.0063,0.0038,0.0121,0.0144,0.0175,0,0,0.015,0.0136,0.015,0.0112,0.014,0.0047,0.0072,-0.0018,-0.0107,-0.018,-0.0181,-0.0055,0.0044,0.0126,0.0202,0.0232,0,0,0,0.0171,0.0188,0.0187,0.019,0.0159,0.0165,0.0066,0.0031,-0.0028,-0.0123,-0.0078,-0.002,0.0027,0.0025,0.0049,-0.0202,-0.0202,-0.0202,-0.0202,0.0246,0.024,0.0287,0.0284,0.0277,0.0234,0.0236,0.0165,0.005,0.0052,0.0087,0.0237,0.0235,0.0253,0.004,0.0041,0.0042,0.0042,0.0043,0.0351,0.0399,0.0388,0.0442,0.0435,0.0449,0.04,0.0345,0.0341,0.0215,0.0251,0.0166,0.0289,0.0054,0.0052,0.005,0.0049,0.0048,0.0048,0.045,0.0475,0.0504,0.058,0.0644,0.0617,0.0718,0.0635,0.0512,0.055,0.0498,0.0495,0.0363,0.0545,0.0546,0.0546,0.0547,0.0548,0.0548,0.0546,0.0573,0.066,0.0735,0.0806,0.0894,0.0916,0.0923,0.0828,0.0702,0.07,0.0406,0.039,0.039,0.0562,0.0559,0.0558,0.0556,0.0555,0.0684,0.068,0.081,0.0896,0.1061,0.1199,0.121,0.1204,0.1166,0.1116,0.077,0.076,0.0718,0.0696,0.0702,0.0945,0.0945,0.0945,0.0945,0.0764,0.0774,0.0931,0.1083,0.1255,0.1344,0.1465,0.136,0.1161,0.0991,0.0989,0.0864,0.0847,0.0803,0.0778,0.0781,0.1045,0.1045,0.1045,0.0851,0.0875,0.1009,0.1138,0.1342,0.1483,0.1543,0.1405,0.1127,0.1046,0.0973,0.0958,0.0759,0.074,0.065,0.0619,0.0614,0,0]}],[{"header":{"parameterUnit":"m.s-1","parameterCategory":2,"la1":30.2992,"la2":30.254,"lo1":-89.0895,"lo2":-89.0443,"dy":0.0025,"dx":0.0025,"nx":19,"ny":19,"refTime":"2026-04-21T21:00:00:Z","depth":"4","parameterNumber":2,"parameterNumberName":"U-component_of_CURRENTS"},"data":[0,0,0,0.1331,0.1334,0.145,0.1451,0.1588,0.1589,0,0,0,0,0,0,0,0,0,0,0,0.1311,0.1312,0.1331,0.1334,0.145,0.1451,0.1588,0.1589,0,0,0,0,0,0,0,0,0,0,0,0.1311,0.1312,0.1314,0.1334,0.145,0.1451,0.1587,0.1504,0,0,0,0,0,0,0,0,0,0,0.1394,0.1359,0.1312,0.1314,0.1335,0.145,0.1451,0.1501,0.151,0.153,0,0.1563,0,0.1568,0.1597,0.1598,0,0,0,0.1342,0.1352,0.1394,0.1314,0.1336,0.1449,0.14,0.1506,0.1516,0.1541,0.1564,0.1569,0.157,0.1598,0.1599,0.1749,0.175,0,0,0.1335,0.132,0.1387,0.1401,0.1386,0.1396,0.1403,0.1512,0.1524,0.1565,0.1572,0.1572,0.1599,0.16,0.1749,0.1749,0,0,0,0.1312,0.1315,0.1355,0.1395,0.1411,0.1399,0.1408,0.152,0.1537,0.1574,0.1574,0.16,0.1601,0.1748,0.1749,0.1848,0,0,0,0.1308,0.1301,0.1352,0.1342,0.141,0.1464,0.1413,0.153,0.1542,0.1573,0.16,0.1602,0.1747,0.1748,0.1844,0.1935,0,0,0,0.1302,0.1299,0.1321,0.1341,0.1387,0.1462,0.1485,0.1533,0.1541,0.1598,0.1603,0.1746,0.1748,0.184,0.1926,0.1986,0,0,0,0.1269,0.1291,0.1322,0.1342,0.1386,0.1449,0.1485,0.1554,0.1606,0.16,0.1747,0.1749,0.1839,0.1921,0.1981,0.1671,0,0,0,0.1268,0.129,0.1299,0.1328,0.1388,0.1432,0.1504,0.1599,0.1638,0.171,0.1714,0.1845,0.1926,0.1985,0.1775,0,0,0,0,0.1278,0.1295,0.1316,0.1361,0.1416,0.154,0.1583,0.1641,0.178,0.1675,0.1853,0.1901,0.1935,0.1739,0.1757,0.1757,0.1757,0.1757,0.1756,0.1248,0.1286,0.1311,0.1386,0.1473,0.1604,0.1722,0.1821,0.1799,0.19,0.1986,0.2112,0.1906,0.1963,0.1963,0.1964,0.1964,0.1965,0.1965,0.1252,0.1264,0.1346,0.1413,0.1561,0.1681,0.1885,0.1952,0.213,0.209,0.2116,0.1861,0.1975,0.1973,0.1971,0.197,0.1969,0.1969,0.1968,0.1235,0.1246,0.131,0.1447,0.1622,0.1791,0.1976,0.2138,0.2256,0.2347,0.2103,0.2198,0.2186,0.2336,0.2337,0.2337,0.2338,0.2339,0.2339,0.1215,0.1261,0.1342,0.15,0.1592,0.1786,0.2072,0.2172,0.2312,0.2228,0.2382,0.2238,0.2225,0.2208,0.2349,0.2348,0.2346,0.2345,0.2345,0.1168,0.1265,0.1341,0.1421,0.1598,0.1697,0.1966,0.2084,0.219,0.2185,0.2142,0.2149,0.2093,0.2086,0.206,0.2164,0.216,0.2157,0,0.1143,0.1196,0.1288,0.1356,0.1446,0.1614,0.1682,0.1827,0.197,0.1898,0.2187,0.2134,0.2137,0.2065,0.2053,0.2017,0,0,0,0.1092,0.1138,0.1142,0.1252,0.1334,0.1467,0.1679,0.1681,0.1936,0.1944,0.2071,0.2094,0.221,0.2381,0.2313,0.2298,0.2266,0,0]},{"header":{"parameterUnit":"m.s-1","parameterCategory":2,"la1":30.2992,"la2":30.254,"lo1":-89.0895,"lo2":-89.0443,"dy":0.0025,"dx":0.0025,"nx":19,"ny":19,"refTime":"2026-04-21T21:00:00:Z","depth":"4","parameterNumber":3,"parameterNumberName":"V-component_of_CURRENTS"},"data":[0,0,0,0.0265,0.0266,0.028,0.028,0.0275,0.0275,0,0,0,0,0,0,0,0,0,0,0,0.0264,0.0264,0.0265,0.0266,0.028,0.028,0.0275,0.0275,0,0,0,0,0,0,0,0,0,0,0,0.0264,0.0264,0.0264,0.0266,0.028,0.028,0.0275,0.0269,0,0,0,0,0,0,0,0,0,0,0.0258,0.0265,0.0264,0.0264,0.0266,0.028,0.028,0.0269,0.027,0.0263,0,0.0272,0,0.0273,0.0275,0.0275,0,0,0,0.0262,0.0265,0.0265,0.0264,0.0266,0.028,0.0272,0.027,0.027,0.0264,0.0272,0.0272,0.0273,0.0275,0.0275,0.0316,0.0316,0,0,0.0261,0.0267,0.0265,0.0266,0.0278,0.0272,0.0273,0.027,0.0276,0.0272,0.0272,0.0273,0.0275,0.0274,0.0315,0.0316,0,0,0,0.0262,0.0267,0.0268,0.0266,0.027,0.0273,0.0274,0.0276,0.0276,0.0272,0.0273,0.0274,0.0274,0.0315,0.0315,0.0359,0,0,0,0.0261,0.0267,0.0268,0.0271,0.0271,0.0277,0.028,0.0276,0.0276,0.0273,0.0274,0.0274,0.0314,0.0315,0.0356,0.0374,0,0,0,0.0262,0.0267,0.0271,0.0272,0.0279,0.0277,0.0277,0.0276,0.0276,0.0275,0.0274,0.0314,0.0315,0.0354,0.0371,0.0348,0,0,0,0.0264,0.0299,0.0271,0.0318,0.0279,0.0324,0.0277,0.0307,0.0314,0.0274,0.0314,0.0315,0.0354,0.0369,0.0347,0.0348,0,0,0,0.0313,0.0305,0.0336,0.0312,0.0372,0.0321,0.038,0.0363,0.0326,0.0311,0.0312,0.0357,0.0371,0.0348,0.0419,0,0,0,0,0.0356,0.0375,0.0392,0.0417,0.043,0.0431,0.0419,0.0391,0.037,0.0335,0.037,0.0377,0.0361,0.0359,0.0321,0.0321,0.0321,0.0321,0.0321,0.0405,0.0423,0.0476,0.0498,0.0522,0.0513,0.0502,0.0459,0.0433,0.0422,0.0422,0.0449,0.0452,0.0432,0.0433,0.0433,0.0433,0.0433,0.0433,0.047,0.0479,0.0523,0.058,0.0581,0.0614,0.0572,0.0537,0.0492,0.0466,0.0447,0.0418,0.0438,0.0437,0.0436,0.0436,0.0435,0.0435,0.0435,0.0467,0.0467,0.0523,0.0587,0.0637,0.0654,0.065,0.0603,0.053,0.0519,0.0481,0.0465,0.0447,0.05,0.05,0.05,0.05,0.05,0.05,0.0402,0.0457,0.0502,0.0588,0.0635,0.0678,0.0676,0.0643,0.0579,0.053,0.0525,0.0471,0.0468,0.0451,0.0501,0.0501,0.05,0.05,0.05,0.0337,0.0369,0.0436,0.0495,0.0614,0.0665,0.0691,0.0649,0.0597,0.0537,0.0516,0.0515,0.0488,0.0485,0.0466,0.0522,0.0522,0.0523,0,0.0265,0.0295,0.0379,0.0469,0.0558,0.0649,0.0645,0.063,0.0554,0.0547,0.0551,0.0527,0.0526,0.0496,0.0493,0.0473,0,0,0,0.0204,0.0252,0.0301,0.0429,0.055,0.0599,0.0646,0.0626,0.0582,0.0555,0.0527,0.0526,0.0537,0.0501,0.0456,0.0453,0.0421,0,0]}]]